DELTA 1 DEB, 10648

Orbit data source: Space-Track

DELTA 1 DEB, 10648 is space debris in SSO originally from a launch on Thu, 29 Jul 1976 UTC launched from the Air Force Western Test Range (AFWTR). Debris objects in space refer to the collection of defunct objects orbiting the Earth. Examples of debris include non-operational satellites, rocket bodies, and fragments generated from explosions, collisions, or faulty payload assembly.

Loading next visibility...
Identifier
10648, 1976-077J
Orbit
SSO
Country
Flag of USUS
Related business
Manufacturer
Unknown
Mission
Spacecraft
Bus & Motor
Unknown
Mass
Unknown
Launch date (UTC)
1976-07-29 (50 years ago)
Launch vehicle
Unknown
Launch site
Air Force Western Test Range (AFWTR)
Object type
Payload
Rocket body
Debris
Shape & HBR
Unknown shape, 0.1 m
Radar Cross Section
Medium (>0.1 m² and <1 m²)

Expand to show TLE details & history
Last TLE update: 12 hours ago

TLE from 12 hours ago
0 DELTA 1 DEB
1 10648U 76077J   26171.02685584  .00000192  00000-0  22002-2 0  9991
2 10648 101.9520 207.3562 0134354 351.3064  37.1255 12.20045898220585
Epoch: 2026-06-20T00:38Z
TLE epoch observation values (Epoch: 2026-06-20T00:38:40.344Z)
Latitude
28.7212°
Longitude
-77.18748°
Altitude
1,510.703 km
Speed
7.15 km/s
True Right ascension
13h 22m 54s
True Declination
28° 35' 25"
Sunlit
Object was in daylight at epoch
Visualization orbit readout
Latitude
Unknown
Longitude
Unknown
Altitude
Unknown
Speed
Unknown
Apparent Right ascension
Unknown
Apparent Declination
Unknown
Sunlit
N/A
Visualization observer readout
Local Sidereal Time
23:48:08
Azimuth
Unknown
Elevation
Unknown
Doppler factor
Unknown
Orbital elements
Apogee altitude
1,696.993 km
Perigee altitude
1,482.885 km
Semi-major axis
7,968.076 km
Eccentricity
0.01344
Inclination
101.952°
RAAN
207.3562°
Arg. of periapsis
351.3064°
True anomaly
38.0673°
Mean anomaly
37.1255°
Eccentric anomaly
37.59513°
Mean motion
3.0515 °/min
Orbital period
117.97 mins
BSTAR
0.0022002
Loading maneuver chart data...
Computing Atmospheric mass density...
Loading historical data...
Loading historical data...
Loading historical data...
Loading historical data...
Loading historical data...
Loading historical data...
Loading historical data...

Documentation

Showing up to 5 results
|